This demonstration page uses our WeatherBlox Daily Observations layout. Learn more.

38.89511, -77.03637

Hourly Observations for June 26, 2015

Temp ( °F °C ) Dew Point ( °F °C ) Humidity (%) Winds ( mph kmh ) Pressure ( in mb ) Visibility ( mi km ) Precip ( " mm )
12:52 am 00:52 Cloudy 71 21.7 66 18.9 84 84 NNE 9 15 29.93 1014 10 16.0934 0 0
1:52 am 01:52 Cloudy 71 21.7 65 18.3 81 81 NNE 7 11 29.91 1013 10 16.0934 0 0
2:52 am 02:52 Cloudy 71 21.7 65 18.3 81 81 NNE 5 7 29.92 1013 10 16.0934 0 0
3:52 am 03:52 Cloudy 71 21.7 65 18.3 81 81 NNW 9 15 29.91 1013 10 16.0934 0 0
4:52 am 04:52 Cloudy 70 21.1 64 17.8 82 82 NNW 10 17 29.92 1013 10 16.0934 0 0
5:33 am 05:33 Cloudy 70 21 64 18 83 83 NW 7 11 29.94 1014 10 16.0934 0 0
5:52 am 05:52 Cloudy 69 20.6 64 17.8 84 84 W 7 11 29.94 1014 10 16.0934 0 0
6:52 am 06:52 Cloudy 69 20.6 64 17.8 84 84 NNW 12 19 29.96 1015 10 16.0934 0 0
7:23 am 07:23 Cloudy 70 21 64 18 83 83 NNW 9 15 29.97 1015 10 16.0934 0 0
7:46 am 07:46 Cloudy 72 22 64 18 78 78 N 10 17 29.97 1015 10 16.0934 0 0
7:52 am 07:52 Cloudy 71 21.7 64 17.8 79 79 N 10 17 29.96 1015 10 16.0934 0 0
8:52 am 08:52 Mostly Cloudy 74 23.3 64 17.8 71 71 NE 5 7 29.98 1015 10 16.0934 0 0
9:52 am 09:52 Cloudy 76 24.4 65 18.3 69 69 NNW 9 15 30 1016 10 16.0934 0 0
10:12 am 10:12 Mostly Cloudy 75 24 64 18 69 69 NNW 7 11 30 1016 10 16.0934 0 0
10:42 am 10:42 Cloudy 79 26 64 18 61 61 Calm 30 1016 10 16.0934 0 0
10:52 am 10:52 Cloudy 77 25 64 17.8 64 64 NNE 5 7 30 1016 10 16.0934 0 0
11:31 am 11:31 Cloudy 77 25 64 18 65 65 ENE 3 6 30 1016 10 16.0934 0 0
11:52 am 11:52 Cloudy 77 25 64 17.8 64 64 E 3 6 30 1016 10 16.0934 0 0
12:52 pm 12:52 Cloudy 78 25.6 64 17.8 62 62 E 3 6 29.98 1015 10 16.0934 0 0
1:52 pm 13:52 Cloudy 80 26.7 65 18.3 60 60 ENE 7 11 29.96 1015 10 16.0934 0 0
2:23 pm 14:23 Cloudy 81 27 64 18 58 58 NE 8 13 29.97 1015 10 16.0934 0 0
2:52 pm 14:52 Cloudy 81 27.2 64 17.8 57 57 Calm 29.98 1015 10 16.0934 0 0
3:20 pm 15:20 Cloudy 81 27 64 18 58 58 N 3 6 30 1016 10 16.0934 0 0
3:52 pm 15:52 Cloudy 81 27.2 63 17.2 54 54 Calm 29.99 1016 10 16.0934 0 0
4:52 pm 16:52 Cloudy 81 27.2 64 17.8 57 57 ESE 6 9 29.98 1015 10 16.0934 0 0
5:06 pm 17:06 Cloudy 81 27 66 19 62 62 SE 3 6 30 1016 10 16.0934 0 0
5:52 pm 17:52 Mostly Cloudy 81 27.2 65 18.3 58 58 NE 6 9 29.98 1015 10 16.0934 0 0
6:52 pm 18:52 Mostly Cloudy 81 27.2 66 18.9 61 61 E 7 11 29.99 1016 10 16.0934 0 0
7:52 pm 19:52 Mostly Cloudy 79 26.1 65 18.3 62 62 E 8 13 30 1016 10 16.0934 0 0
8:52 pm 20:52 Mostly Cloudy 77 25 65 18.3 66 66 SE 7 11 30 1016 10 16.0934 0 0
9:52 pm 21:52 Mostly Cloudy 76 24.4 66 18.9 72 72 SE 5 7 30.01 1016 10 16.0934 0 0
10:52 pm 22:52 Cloudy 76 24.4 65 18.3 69 69 SE 3 6 30.03 1017 10 16.0934 0 0
11:52 pm 23:52 Cloudy 75 23.9 67 19.4 76 76 SE 5 7 30.03 1017 10 16.0934 0 0

Powered by AerisWeather